• Join FlightAware (Why Join?)
  • Login
  • US Flag 
07:56AM EST


 

Airport Tracker/Info


-or-


 

Live Flight TrackerFlight Track Log ✈ N604PJ ✈ 02-Oct-2013 ✈ KCMH - KMDW

Flight Track Log - Related Links

Times and Time Zones

All times are in EDT time to prevent confusion due to time zone crossing. See the N604PJ flight status page for this flight to view local times or setup timezone preferences in your user account.

Time Position Orientation Groundspeed Altitude Reporting Facility
EDT Latitude Longitude Course Direction KTS MPH feet Rate Location/Type
09:53AM 39.9944 -82.9033 270° West 148 170 1,100  Level Indianapolis Center
09:54AM 39.9944 -82.9469 267° West 178 205 2,300 1,800 Climbing Indianapolis Center
09:55AM 39.9931 -83.0258 269° West 217 250 4,300 1,980 Climbing Indianapolis Center
09:56AM 39.9967 -83.1003 274° West 209 241 6,400 1,980 Climbing Indianapolis Center
09:57AM 39.9986 -83.1594 272° West 206 237 8,000 1,800 Climbing Indianapolis Center
09:58AM 40.0011 -83.2414 272° West 219 252 9,800 1,740 Climbing Indianapolis Center
09:59AM 40.0125 -83.3217 281° West 227 261 11,700 1,680 Climbing Indianapolis Center
10:00AM 40.0489 -83.3931 304° West 234 269 13,300 1,500 Climbing Indianapolis Center
10:01AM 40.0847 -83.4631 304° West 232 267 14,800 1,500 Climbing Indianapolis Center
10:02AM 40.1236 -83.5353 305° West 237 273 16,500 1,440 Climbing Indianapolis Center
10:03AM 40.1622 -83.6067 305° West 237 273 17,800 1,320 Climbing Indianapolis Center
10:04AM 40.2072 -83.6911 305° West 239 275 19,300 1,260 Climbing Indianapolis Center
10:05AM 40.2481 -83.7692 304° West 252 290 20,500 1,080 Climbing Indianapolis Center
10:06AM 40.2897 -83.8469 305° West 258 297 21,600 720 Climbing Indianapolis Center
10:07AM 40.3303 -83.9294 303° West 270 311 22,000 180 Climbing Indianapolis Center
10:08AM 40.3789 -84.0194 305° West 300 345 22,000  Level Indianapolis Center
10:09AM 40.4300 -84.1167 305° West 321 369 22,000  Level Indianapolis Center
10:10AM 40.4922 -84.2344 305° West 330 380 22,000  Level Indianapolis Center
10:11AM 40.5419 -84.3317 304° West 326 375 22,000  Level Indianapolis Center
10:12AM 40.5936 -84.4328 304° West 333 383 22,000  Level Indianapolis Center
10:13AM 40.6458 -84.5314 305° West 330 380 22,000  Level Indianapolis Center
10:14AM 40.6950 -84.6322 303° West 328 377 22,000  Level Indianapolis Center
10:15AM 40.7453 -84.7253 306° West 335 386 22,000  Level Chicago Center
10:16AM 40.7981 -84.8258 305° West 334 384 22,000  Level Chicago Center
10:17AM 40.8494 -84.9289 303° West 335 386 22,000 -300 Level Chicago Center
10:18AM 40.9108 -85.0200 312° West 335 386 21,400 -900 Descending Chicago Center
10:19AM 40.9700 -85.1183 309° West 337 388 20,200 -1,380 Descending Chicago Center
10:20AM 41.0381 -85.2281 309° West 329 379 18,600 -1,320 Descending Chicago Center
10:21AM 41.0903 -85.3147 309° West 311 358 17,500 -1,260 Descending Chicago Center
10:22AM 41.1439 -85.4014 309° West 304 350 16,100 -720 Descending Chicago Center
10:23AM 41.1961 -85.4878 309° West 301 346 16,100  Level Chicago Center
10:24AM 41.2497 -85.5731 310° West 300 345 16,100  Level Chicago Center
10:25AM 41.3039 -85.6636 309° West 310 357 16,100  Level Chicago Center
10:26AM 41.3547 -85.7553 306° West 303 349 16,100  Level Chicago Center
10:27AM 41.3858 -85.8825 288° West 299 344 16,100 -60 Level Chicago Center
10:28AM 41.4156 -85.9869 291° West 301 346 16,000 -660 Descending Chicago Center
10:30AM 41.4425 -86.0933 289° West 302 348 14,800 -1,320 Descending Chicago Center
10:31AM 41.4508 -86.2039 276° West 301 346 13,300 -1,560 Descending Chicago Center
10:32AM 41.4572 -86.3111 275° West 294 338 11,600 -1,560 Descending Chicago Center
10:33AM 41.4669 -86.4181 277° West 292 336 10,100 -780 Descending Chicago Center
10:34AM 41.4747 -86.5444 275° West 287 330 10,000  Descending Chicago Center
10:35AM 41.4819 -86.6514 275° West 289 333 10,100  Climbing Chicago Center
10:36AM 41.4903 -86.7683 275° West 290 334 10,000 -600 Descending Chicago Center
10:37AM 41.4958 -86.8714 274° West 283 326 8,900 -1,260 Descending Chicago Center
10:38AM 41.5033 -86.9728 276° West 278 320 7,500 -1,380 Descending Chicago Center
10:39AM 41.5183 -87.0639 282° West 257 296 6,100 -900 Descending Chicago Center
10:40AM 41.5425 -87.1581 289° West 266 306 5,700 -540 Descending Chicago Center
10:41AM 41.5656 -87.2494 289° West 264 304 5,100 -300 Descending Chicago Center
10:42AM 41.5894 -87.3606 286° West 262 302 5,100 -120 Level Chicago Center
10:43AM 41.5997 -87.4544 278° West 266 306 4,900 -540 Descending Chicago Center
10:44AM 41.5961 -87.5489 267° West 257 296 4,000 -480 Descending Chicago Center
10:45AM 41.5933 -87.6344 268° West 240 276 4,000  Level Chicago Center
10:46AM 41.5908 -87.7294 268° West 218 251 4,100  Climbing Chicago Center
10:47AM 41.5883 -87.8061 268° West 211 243 4,100 -660 Level Chicago Center
10:48AM 41.6200 -87.8753 302° West 222 255 2,800 -780 Descending Chicago Center
10:49AM 41.6639 -87.9014 336° Northwest 200 230 2,500 -120 Descending Chicago Center
10:50AM 41.6997 -87.8608 40° Northeast 174 200 2,600 -360 Climbing Chicago Center
10:51AM 41.7378 -87.8119 44° Northeast 164 189 1,800 -780 Descending Chicago Center
10:52AM 41.7631 -87.7803 43° Northeast 145 167 1,100 -420 Descending Chicago Center
10:53AM 41.7861 -87.7531 41° Northeast 139 160 1,000 -120 Descending Chicago Center
10:55AM 41.7860 -87.7524 219° Southwest  Level Estimated